Home   Weather   Whistler   Past weeks
Flag for Canada

Past Weather in Whistler, British Columbia, Canada — Yesterday and Last 2 Weeks

Now
62 °F

Cool.


Feels Like: 62 °F
Forecast: 71 / 53 °F
Wind: 1 mph from Southwest

Location: Squamish Airport

Current Time: Jun 18, 2019 at 2:26:38 am

Latest Report: Jun 18, 2019 at 1:00 am


Visibility: N/A

Pressure: 30.03 "Hg (27.74 "Hg at 674m altitude)

Humidity: 77%

Dew Point: 55 °F

Location of WhistlerLocation

Past Weather in Whistler — Graph

°F

Whistler Temperature Yesterday

Maximum temperature yesterday: 76 °F (at 3:00 pm)
Minimum temperature yesterday: 52 °F (at 6:00 am)
Average temperature yesterday: 66 °F

High & Low Weather Summary for the Past Weeks

 TemperatureHumidityPressure
High87 °F (Jun 12, 1:00 pm)100% (Jun 7, 7:00 am)30.40 "Hg (Jun 7, 7:00 am)
Low43 °F (Jun 7, 2:00 am)28% (Jun 11, 6:00 pm)29.77 "Hg (Jun 12, 8:00 pm)
Average62 °F65%30.05 "Hg
* Reported Jun 3 1:00 am — Jun 18 1:00 am, Whistler. Weather by CustomWeather, © 2019

Note: Actual official high and low records may vary slightly from our data, if they occured in-between our weather recording intervals... More about our weather records

Advertising

Whistler Weather History for the Previous 24 Hours

Scroll right to see more
 ConditionsComfort  
Time TempWeatherWind HumidityBarometerVisibility
1:00 am
Tue, Jun 18
62 °FCool.1 mph77%30.03 "HgN/A
12:00 am65 °FMild.2 mph69%30.03 "HgN/A
11:00 pm
Mon, Jun 17
66 °FMild.2 mph67%30.03 "HgN/A
10:00 pm69 °FMild.6 mph59%30.02 "HgN/A
9:00 pm70 °FMild.6 mph57%30.01 "HgN/A
8:00 pm71 °FMild.7 mph55%30.01 "HgN/A
7:00 pm73 °FMild.8 mph52%30.00 "HgN/A
6:00 pm75 °FMild.8 mph47%30.01 "HgN/A
5:00 pm75 °FMild.8 mph48%30.01 "HgN/A
4:00 pm76 °FMild.7 mph46%30.02 "HgN/A
3:00 pm76 °FMild.10 mph45%30.02 "HgN/A
2:00 pm73 °FMild.8 mph51%30.03 "HgN/A
1:00 pm75 °FMild.8 mph48%30.03 "HgN/A
12:00 pm74 °FMild.7 mph50%30.04 "HgN/A
11:00 am70 °FMild.8 mph58%30.05 "HgN/A
10:00 am68 °FMild.8 mph60%30.05 "HgN/A
9:00 am67 °FMild.2 mph63%30.06 "HgN/A
8:00 am63 °FMild.1 mph68%30.06 "HgN/A
7:00 am58 °FCool.No wind84%30.06 "HgN/A
6:00 am52 °FCool.No wind93%30.05 "HgN/A
5:00 am54 °FCool.2 mph94%30.03 "HgN/A
4:00 am53 °FCool.1 mph93%30.02 "HgN/A
3:00 am54 °FCool.No wind92%30.01 "HgN/A
2:00 am55 °FCool.1 mph88%30.01 "HgN/A
Weather by CustomWeather, © 2019

See weather overview